Tracking 27126 objects as of 30-Mar-2023
HD Live streaming from Space Station
objects crossing your sky now

STARLINK-4261

Track STARLINK-4261 now!
10-day predictions
STARLINK-4261 is classified as:


NORAD ID: 52868
Int'l Code: 2022-062AQ
Perigee: 545.3 km
Apogee: 548.4 km
Inclination: 53.2 °
Period: 95.4 minutes
Semi major axis: 6917 km
RCS: Unknown
Launch date: June 17, 2022
Source: United States (US)
Launch site: AIR FORCE EASTERN TEST RANGE (AFETR)
Your satellite tracking list
Your tracking list is empty




NASA's NSSDC Master Catalog

Two Line Element Set (TLE):
1 52868U 22062AQ  23089.25146693  .00012571  00000-0  80627-3 0  9991
2 52868  53.2162 171.9771 0002190  69.3225 290.8002 15.08851444 44067
Source of the keplerian elements: AFSPC